KLM1169 EHAM-ENBR

Flight info

Callsign KLM1169
Flight time 1h 25m
Altitude 34000
Route BERGI M90 LONAM DCT LARGA/N0444F350 DCT PENUN/N0449F360 DCT ALUVA
Aircraft A321/M-SDE3FGHIRWY/LB1

Departure

Time 2026-05-06 19:39
Airport Amsterdam Airport Schiphol (EHAM)

Arrival

Time 2026-05-06 21:04
Airport Bergen Airport, Flesland (ENBR)
Time Latitude Longitude Altitude Speed Heading
2026-05-06 18:48 52.30914 4.76795 -1 ft 0 kts 183°
2026-05-06 19:22 52.30921 4.76795 -1 ft 4 kts 182°
2026-05-06 19:22 52.30948 4.76796 -1 ft 4 kts 179°
2026-05-06 19:23 52.30974 4.76793 -1 ft 4 kts 166°
2026-05-06 19:23 52.30994 4.76779 -1 ft 4 kts 102°
2026-05-06 19:23 52.30997 4.76777 -1 ft 0 kts 34°
2026-05-06 19:27 52.31024 4.76806 -1 ft 11 kts 33°
2026-05-06 19:28 52.31093 4.76881 -1 ft 12 kts 33°
2026-05-06 19:28 52.31161 4.76953 -1 ft 11 kts 33°
2026-05-06 19:28 52.31227 4.77023 -1 ft 11 kts 33°
2026-05-06 19:28 52.31289 4.77093 -1 ft 11 kts 34°
2026-05-06 19:29 52.31351 4.77157 -1 ft 10 kts 32°
2026-05-06 19:29 52.31415 4.77191 -1 ft 10 kts
2026-05-06 19:29 52.31481 4.77197 -1 ft 9 kts
2026-05-06 19:29 52.31544 4.77195 -1 ft 9 kts 343°
2026-05-06 19:30 52.31569 4.77112 -1 ft 12 kts 268°
2026-05-06 19:30 52.31563 4.76921 -1 ft 18 kts 267°
2026-05-06 19:30 52.31556 4.76725 -1 ft 17 kts 266°
2026-05-06 19:30 52.31549 4.76541 -1 ft 16 kts 267°
2026-05-06 19:31 52.31544 4.76370 -1 ft 15 kts 266°
2026-05-06 19:31 52.31538 4.76210 -1 ft 15 kts 266°
2026-05-06 19:31 52.31523 4.75781 -1 ft 19 kts 267°
2026-05-06 19:32 52.31516 4.75574 -1 ft 18 kts 266°
2026-05-06 19:32 52.31509 4.75376 -1 ft 17 kts 266°
2026-05-06 19:32 52.31503 4.75189 -1 ft 16 kts 267°
2026-05-06 19:32 52.31498 4.75014 -1 ft 15 kts 266°
2026-05-06 19:33 52.31493 4.74852 -1 ft 14 kts 267°
2026-05-06 19:33 52.31487 4.74703 -1 ft 13 kts 266°
2026-05-06 19:33 52.31483 4.74566 -1 ft 11 kts 267°
2026-05-06 19:33 52.31479 4.74442 -1 ft 11 kts 266°
2026-05-06 19:34 52.31472 4.74285 -1 ft 15 kts 266°
2026-05-06 19:34 52.31421 4.74153 -1 ft 14 kts 208°
2026-05-06 19:34 52.31332 4.74132 -1 ft 12 kts 183°
2026-05-06 19:34 52.31243 4.74124 -1 ft 16 kts 183°
2026-05-06 19:35 52.31087 4.74110 -1 ft 28 kts 183°
2026-05-06 19:35 52.30864 4.74090 -1 ft 33 kts 184°
2026-05-06 19:35 52.30636 4.74070 -1 ft 32 kts 182°
2026-05-06 19:35 52.30443 4.74051 -1 ft 19 kts 184°
2026-05-06 19:36 52.30343 4.74021 -1 ft 12 kts 202°
2026-05-06 19:36 52.30278 4.73974 -1 ft 8 kts 203°
2026-05-06 19:36 52.30263 4.73962 -1 ft 2 kts 206°
2026-05-06 19:36 52.30214 4.73905 -1 ft 15 kts 220°
2026-05-06 19:37 52.30192 4.73779 -2 ft 5 kts 285°
2026-05-06 19:37 52.30203 4.73749 -2 ft 3 kts 316°
2026-05-06 19:37 52.30225 4.73742 -3 ft 4 kts 356°
2026-05-06 19:37 52.30239 4.73742 -3 ft 0 kts
2026-05-06 19:38 52.30329 4.73749 -4 ft 44 kts
2026-05-06 19:38 52.30856 4.73800 -1 ft 105 kts
2026-05-06 19:39 52.31754 4.73880 -1 ft 150 kts
2026-05-06 19:39 52.32898 4.73978 207 ft 172 kts
2026-05-06 19:39 52.34128 4.74094 698 ft 181 kts
2026-05-06 19:39 52.35391 4.73878 1311 ft 188 kts 346°
2026-05-06 19:40 52.36657 4.73178 1734 ft 197 kts 346°
2026-05-06 19:40 52.37981 4.72428 2144 ft 205 kts 345°
2026-05-06 19:40 52.39358 4.71600 2552 ft 219 kts 343°
2026-05-06 19:40 52.40896 4.70781 2793 ft 246 kts 346°
2026-05-06 19:41 52.42566 4.69848 3428 ft 259 kts 343°
2026-05-06 19:41 52.44193 4.68539 4368 ft 261 kts 327°
2026-05-06 19:41 52.45661 4.66735 5238 ft 266 kts 328°
2026-05-06 19:41 52.47206 4.65041 6095 ft 268 kts 331°
2026-05-06 19:42 52.48784 4.63377 6923 ft 270 kts 329°
2026-05-06 19:42 52.50385 4.61744 7753 ft 272 kts 330°
2026-05-06 19:42 52.52005 4.60141 8601 ft 272 kts 330°
2026-05-06 19:42 52.53633 4.58507 9379 ft 277 kts 328°
2026-05-06 19:43 52.55295 4.56789 10019 ft 283 kts 327°
2026-05-06 19:43 52.57004 4.54992 10356 ft 303 kts 327°
2026-05-06 19:43 52.58841 4.53041 10510 ft 326 kts 327°
2026-05-06 19:43 52.60780 4.50976 10957 ft 336 kts 326°
2026-05-06 19:44 52.62083 4.49583 11383 ft 340 kts 326°
2026-05-06 19:44 52.64079 4.47452 12016 ft 344 kts 326°
2026-05-06 19:44 52.66752 4.44597 12842 ft 345 kts 326°
2026-05-06 19:44 52.68780 4.42426 13487 ft 349 kts 325°
2026-05-06 19:45 52.70819 4.40241 14206 ft 350 kts 325°
2026-05-06 19:45 52.72202 4.38756 14620 ft 353 kts 325°
2026-05-06 19:45 52.74329 4.36668 15186 ft 359 kts 332°
2026-05-06 19:45 52.76687 4.35215 15775 ft 365 kts 343°
2026-05-06 19:46 52.79147 4.34290 16362 ft 369 kts 346°
2026-05-06 19:46 52.81701 4.33350 16958 ft 372 kts 344°
2026-05-06 19:46 52.84239 4.32409 17535 ft 376 kts 344°
2026-05-06 19:46 52.86805 4.31452 18090 ft 380 kts 345°
2026-05-06 19:47 52.89397 4.30477 18606 ft 383 kts 344°
2026-05-06 19:47 52.91977 4.29506 19099 ft 386 kts 345°
2026-05-06 19:47 52.94615 4.28519 19604 ft 389 kts 345°
2026-05-06 19:47 52.97264 4.27523 20092 ft 392 kts 343°
2026-05-06 19:48 52.99930 4.26519 20577 ft 395 kts 344°
2026-05-06 19:48 53.02621 4.25505 21059 ft 398 kts 344°
2026-05-06 19:48 53.05337 4.24482 21529 ft 401 kts 345°
2026-05-06 19:48 53.08068 4.23454 21997 ft 404 kts 345°
2026-05-06 19:49 53.10823 4.22415 22452 ft 408 kts 344°
2026-05-06 19:49 53.13603 4.21366 22897 ft 411 kts 345°
2026-05-06 19:49 53.16404 4.20308 23346 ft 414 kts 344°
2026-05-06 19:49 53.19222 4.19235 23771 ft 417 kts 344°
2026-05-06 19:50 53.22059 4.18151 24149 ft 419 kts 344°
2026-05-06 19:50 53.24912 4.17061 24535 ft 422 kts 344°
2026-05-06 19:50 53.27782 4.15964 24921 ft 424 kts 344°
2026-05-06 19:50 53.30666 4.14861 25293 ft 426 kts 344°
2026-05-06 19:51 53.33573 4.13750 25661 ft 428 kts 344°
2026-05-06 19:51 53.36487 4.12638 26035 ft 431 kts 344°
2026-05-06 19:51 53.39418 4.11522 26424 ft 433 kts 344°
2026-05-06 19:51 53.42359 4.10398 26816 ft 434 kts 344°
2026-05-06 19:52 53.45273 4.09278 27183 ft 436 kts 344°
2026-05-06 19:52 53.48272 4.08118 27541 ft 438 kts 344°
2026-05-06 19:52 53.51257 4.06962 27901 ft 440 kts 344°
2026-05-06 19:52 53.54210 4.05820 28228 ft 443 kts 344°
2026-05-06 19:53 53.57220 4.04657 28549 ft 445 kts 344°
2026-05-06 19:53 53.60245 4.03488 28876 ft 447 kts 344°
2026-05-06 19:53 53.63283 4.02316 29191 ft 449 kts 344°
2026-05-06 19:53 53.66345 4.01136 29510 ft 451 kts 344°
2026-05-06 19:54 53.69415 3.99945 29825 ft 454 kts 343°
2026-05-06 19:54 53.72499 3.98737 30106 ft 456 kts 343°
2026-05-06 19:54 53.75596 3.97522 30419 ft 457 kts 343°
2026-05-06 19:54 53.78689 3.96313 30803 ft 456 kts 343°
2026-05-06 19:55 53.81785 3.95189 31177 ft 457 kts 348°
2026-05-06 19:55 53.84963 3.94737 31544 ft 460 kts 357°
2026-05-06 19:55 53.88162 3.95088 31915 ft 462 kts
2026-05-06 19:55 53.91355 3.95744 32283 ft 462 kts
2026-05-06 19:56 53.94547 3.96393 32668 ft 462 kts
2026-05-06 19:56 53.97735 3.97037 33013 ft 462 kts
2026-05-06 19:56 54.00886 3.97671 33375 ft 461 kts
2026-05-06 19:56 54.04070 3.98312 33745 ft 461 kts
2026-05-06 19:57 54.07259 3.98955 33999 ft 461 kts
2026-05-06 19:57 54.10442 3.99598 34045 ft 461 kts
2026-05-06 19:57 54.16804 4.00896 34044 ft 460 kts
2026-05-06 19:58 54.19994 4.01554 34289 ft 461 kts
2026-05-06 19:58 54.23189 4.02210 34565 ft 461 kts
2026-05-06 19:58 54.26378 4.02866 34836 ft 462 kts
2026-05-06 19:58 54.29569 4.03523 35107 ft 461 kts
2026-05-06 19:59 54.32758 4.04175 35372 ft 461 kts
2026-05-06 19:59 54.35944 4.04824 35631 ft 461 kts
2026-05-06 19:59 54.39087 4.05470 35885 ft 461 kts
2026-05-06 19:59 54.42276 4.06133 36024 ft 461 kts
2026-05-06 20:00 54.48666 4.07460 36050 ft 458 kts
2026-05-06 20:00 54.54946 4.08763 36050 ft 458 kts
2026-05-06 20:01 54.61275 4.10067 36043 ft 457 kts
2026-05-06 20:01 54.67591 4.11374 36037 ft 457 kts
2026-05-06 20:02 54.73907 4.12700 36063 ft 457 kts
2026-05-06 20:02 54.80222 4.14039 36063 ft 457 kts
2026-05-06 20:03 54.86537 4.15379 36057 ft 457 kts
2026-05-06 20:03 54.92835 4.17009 36060 ft 458 kts
2026-05-06 20:04 54.99109 4.18926 36063 ft 458 kts
2026-05-06 20:04 55.05385 4.20832 36065 ft 457 kts
2026-05-06 20:05 55.11660 4.22655 36056 ft 457 kts
2026-05-06 20:05 55.17889 4.24440 36056 ft 457 kts
2026-05-06 20:06 55.24193 4.26260 36071 ft 456 kts
2026-05-06 20:06 55.30414 4.28094 36066 ft 456 kts
2026-05-06 20:07 55.36676 4.29953 36060 ft 456 kts
2026-05-06 20:07 55.42936 4.31796 36061 ft 456 kts
2026-05-06 20:08 55.49190 4.33646 36080 ft 456 kts
2026-05-06 20:08 55.55455 4.35503 36077 ft 456 kts
2026-05-06 20:09 55.61706 4.37359 36073 ft 456 kts
2026-05-06 20:09 55.67960 4.39216 36070 ft 456 kts
2026-05-06 20:10 55.74215 4.41094 36087 ft 456 kts
2026-05-06 20:10 55.80470 4.42970 36084 ft 456 kts
2026-05-06 20:11 55.86684 4.44827 36084 ft 456 kts
2026-05-06 20:11 55.92941 4.46734 36083 ft 456 kts
2026-05-06 20:12 55.99206 4.48636 36085 ft 456 kts
2026-05-06 20:12 56.05466 4.50524 36087 ft 456 kts
2026-05-06 20:13 56.11720 4.52441 36082 ft 456 kts
2026-05-06 20:13 56.17968 4.54372 36080 ft 455 kts
2026-05-06 20:14 56.24216 4.56299 36107 ft 455 kts
2026-05-06 20:14 56.30465 4.58220 36102 ft 455 kts
2026-05-06 20:15 56.36672 4.60132 36071 ft 455 kts
2026-05-06 20:15 56.42922 4.62075 36066 ft 456 kts
2026-05-06 20:16 56.49182 4.64032 36090 ft 457 kts
2026-05-06 20:16 56.55452 4.65995 36087 ft 457 kts
2026-05-06 20:17 56.61733 4.67943 36085 ft 457 kts
2026-05-06 20:17 56.68006 4.69911 36084 ft 458 kts
2026-05-06 20:18 56.74278 4.71902 36081 ft 458 kts
2026-05-06 20:18 56.80562 4.73901 36098 ft 458 kts
2026-05-06 20:19 56.86835 4.75883 36091 ft 458 kts
2026-05-06 20:19 56.93112 4.77885 36086 ft 458 kts
2026-05-06 20:20 56.99391 4.79896 36083 ft 458 kts
2026-05-06 20:20 57.05663 4.81903 36104 ft 458 kts
2026-05-06 20:21 57.11946 4.83674 36093 ft 454 kts 358°
2026-05-06 20:21 57.18205 4.84035 36087 ft 452 kts 357°
2026-05-06 20:22 57.24504 4.84380 36083 ft 453 kts 357°
2026-05-06 20:22 57.30795 4.84716 36107 ft 452 kts 357°
2026-05-06 20:23 57.37091 4.85060 36095 ft 452 kts 357°
2026-05-06 20:23 57.43384 4.85414 36088 ft 452 kts 357°
2026-05-06 20:24 57.49672 4.85774 36086 ft 452 kts 357°
2026-05-06 20:24 57.55958 4.86142 36110 ft 452 kts 357°
2026-05-06 20:25 57.62245 4.86483 36097 ft 452 kts 356°
2026-05-06 20:25 57.68526 4.86831 36088 ft 451 kts 357°
2026-05-06 20:26 57.74806 4.87190 36092 ft 451 kts 357°
2026-05-06 20:26 57.81044 4.87542 36082 ft 451 kts 357°
2026-05-06 20:27 57.87315 4.87895 36101 ft 451 kts 356°
2026-05-06 20:27 57.93574 4.88246 36113 ft 450 kts 356°
2026-05-06 20:28 57.99831 4.88605 36099 ft 449 kts 356°
2026-05-06 20:28 58.06064 4.88969 36095 ft 447 kts 356°
2026-05-06 20:29 58.12288 4.89328 36105 ft 446 kts 356°
2026-05-06 20:29 58.18476 4.89706 36075 ft 445 kts 356°
2026-05-06 20:30 58.27753 4.90249 36073 ft 444 kts 356°
2026-05-06 20:31 58.33941 4.90607 36069 ft 444 kts 356°
2026-05-06 20:31 58.40120 4.90969 36095 ft 445 kts 355°
2026-05-06 20:32 58.46304 4.91323 36082 ft 445 kts 355°
2026-05-06 20:32 58.52457 4.91687 36075 ft 445 kts 356°
2026-05-06 20:33 58.58649 4.92069 36071 ft 445 kts 356°
2026-05-06 20:33 58.64847 4.92433 36072 ft 445 kts 355°
2026-05-06 20:34 58.69997 4.92728 36069 ft 445 kts 355°
2026-05-06 20:34 58.76197 4.93109 36069 ft 446 kts 356°
2026-05-06 20:35 58.82397 4.93496 36073 ft 446 kts 356°
2026-05-06 20:35 58.88599 4.93859 36073 ft 446 kts 355°
2026-05-06 20:35 58.91701 4.94038 35921 ft 447 kts 355°
2026-05-06 20:36 58.94877 4.94217 34941 ft 457 kts 355°
2026-05-06 20:36 58.98074 4.94396 33966 ft 460 kts 354°
2026-05-06 20:36 59.01243 4.94584 32732 ft 460 kts 354°
2026-05-06 20:36 59.04415 4.94789 32046 ft 450 kts 355°
2026-05-06 20:37 59.07505 4.95005 31526 ft 438 kts 354°
2026-05-06 20:37 59.10504 4.95217 30977 ft 427 kts 354°
2026-05-06 20:37 59.13435 4.95411 30430 ft 416 kts 354°
2026-05-06 20:37 59.16310 4.95590 29866 ft 412 kts 354°
2026-05-06 20:38 59.19163 4.95757 29332 ft 408 kts 354°
2026-05-06 20:38 59.21984 4.95923 28820 ft 403 kts 354°
2026-05-06 20:38 59.24776 4.96088 28306 ft 401 kts 353°
2026-05-06 20:38 59.27557 4.96252 27809 ft 397 kts 353°
2026-05-06 20:39 59.30302 4.96415 27311 ft 393 kts 353°
2026-05-06 20:39 59.33013 4.96583 26802 ft 389 kts 353°
2026-05-06 20:39 59.35711 4.96752 26308 ft 386 kts 353°
2026-05-06 20:39 59.38379 4.96917 25842 ft 381 kts 352°
2026-05-06 20:40 59.40985 4.96674 25381 ft 371 kts 346°
2026-05-06 20:40 59.43549 4.96254 24942 ft 367 kts 346°
2026-05-06 20:40 59.46085 4.95841 24504 ft 363 kts 346°
2026-05-06 20:40 59.48592 4.95434 24085 ft 359 kts 346°
2026-05-06 20:41 59.51072 4.95030 23715 ft 356 kts 345°
2026-05-06 20:41 59.53528 4.94626 23215 ft 353 kts 346°
2026-05-06 20:41 59.55959 4.94229 22823 ft 347 kts 346°
2026-05-06 20:41 59.58350 4.93839 22423 ft 343 kts 346°
2026-05-06 20:42 59.60718 4.93448 22020 ft 340 kts 346°
2026-05-06 20:42 59.63070 4.93060 21617 ft 338 kts 346°
2026-05-06 20:42 59.65411 4.92673 21212 ft 336 kts 346°
2026-05-06 20:42 59.67705 4.92294 20812 ft 334 kts 346°
2026-05-06 20:43 59.70041 4.91908 20392 ft 332 kts 346°
2026-05-06 20:43 59.72304 4.91528 19993 ft 329 kts 346°
2026-05-06 20:43 59.74581 4.91145 19582 ft 327 kts 346°
2026-05-06 20:44 59.81537 4.89734 18299 ft 319 kts 344°
2026-05-06 20:44 59.83726 4.89085 17849 ft 316 kts 343°
2026-05-06 20:44 59.85883 4.88424 17445 ft 313 kts 343°
2026-05-06 20:45 59.88028 4.87772 17052 ft 311 kts 343°
2026-05-06 20:45 59.90159 4.87139 16659 ft 309 kts 344°
2026-05-06 20:45 59.92280 4.86522 16270 ft 307 kts 344°
2026-05-06 20:45 59.94389 4.85915 15888 ft 306 kts 344°
2026-05-06 20:46 59.96488 4.85313 15497 ft 304 kts 344°
2026-05-06 20:46 59.98581 4.84717 15113 ft 303 kts 345°
2026-05-06 20:46 60.00658 4.84126 14729 ft 301 kts 345°
2026-05-06 20:46 60.02727 4.83534 14350 ft 300 kts 345°
2026-05-06 20:47 60.04790 4.82941 13968 ft 298 kts 345°
2026-05-06 20:47 60.06837 4.82347 13549 ft 297 kts 345°
2026-05-06 20:47 60.08875 4.81759 13191 ft 295 kts 346°
2026-05-06 20:47 60.10912 4.81168 12764 ft 295 kts 346°
2026-05-06 20:48 60.12942 4.80580 12379 ft 294 kts 347°
2026-05-06 20:48 60.14944 4.80006 11989 ft 293 kts 347°
2026-05-06 20:48 60.16961 4.79424 11596 ft 292 kts 347°
2026-05-06 20:48 60.18967 4.78844 11196 ft 290 kts 347°
2026-05-06 20:49 60.20960 4.78267 10805 ft 289 kts 348°
2026-05-06 20:49 60.22944 4.77691 10437 ft 287 kts 348°
2026-05-06 20:49 60.24893 4.77125 10175 ft 280 kts 348°
2026-05-06 20:49 60.26809 4.76569 9961 ft 276 kts 348°
2026-05-06 20:50 60.28710 4.76019 9826 ft 276 kts 348°
2026-05-06 20:50 60.30608 4.75466 9686 ft 275 kts 348°
2026-05-06 20:50 60.32520 4.74899 9137 ft 281 kts 348°
2026-05-06 20:50 60.34439 4.74330 8812 ft 276 kts 348°
2026-05-06 20:51 60.36320 4.73775 8577 ft 268 kts 348°
2026-05-06 20:51 60.38127 4.73248 8448 ft 257 kts 348°
2026-05-06 20:51 60.39862 4.72738 8280 ft 247 kts 347°
2026-05-06 20:51 60.41464 4.71824 8020 ft 239 kts 337°
2026-05-06 20:52 60.43006 4.70692 7948 ft 236 kts 337°
2026-05-06 20:52 60.44560 4.69559 7895 ft 238 kts 337°
2026-05-06 20:52 60.46166 4.68708 7759 ft 240 kts 351°
2026-05-06 20:52 60.47843 4.68642 7633 ft 242 kts 358°
2026-05-06 20:53 60.49527 4.68669 7495 ft 242 kts 357°
2026-05-06 20:53 60.51210 4.68744 7363 ft 243 kts
2026-05-06 20:53 60.52852 4.69566 7237 ft 245 kts 18°
2026-05-06 20:53 60.54452 4.70777 7093 ft 245 kts 18°
2026-05-06 20:54 60.56050 4.71983 6976 ft 245 kts 19°
2026-05-06 20:54 60.57549 4.73622 6842 ft 247 kts 35°
2026-05-06 20:54 60.58867 4.75870 6716 ft 246 kts 38°
2026-05-06 20:54 60.60168 4.78123 6623 ft 245 kts 38°
2026-05-06 20:55 60.61393 4.80535 6382 ft 245 kts 50°
2026-05-06 20:55 60.62291 4.83481 6123 ft 245 kts 60°
2026-05-06 20:55 60.63088 4.86545 5867 ft 245 kts 63°
2026-05-06 20:55 60.63494 4.89867 5608 ft 240 kts 91°
2026-05-06 20:56 60.63118 4.93082 5373 ft 230 kts 118°
2026-05-06 20:56 60.62372 4.95904 5142 ft 223 kts 118°
2026-05-06 20:56 60.61431 4.98296 4887 ft 215 kts 145°
2026-05-06 20:56 60.60201 4.99916 4666 ft 213 kts 146°
2026-05-06 20:57 60.59172 5.02086 4425 ft 214 kts 130°
2026-05-06 20:57 60.58329 5.04571 4186 ft 213 kts 123°
2026-05-06 20:57 60.57548 5.07124 3944 ft 211 kts 123°
2026-05-06 20:57 60.56781 5.09658 3709 ft 209 kts 123°
2026-05-06 20:58 60.55956 5.12085 3456 ft 207 kts 138°
2026-05-06 20:58 60.54691 5.13261 3233 ft 199 kts 172°
2026-05-06 20:58 60.53365 5.13700 3050 ft 186 kts 172°
2026-05-06 20:58 60.52144 5.14102 2969 ft 170 kts 172°
2026-05-06 20:59 60.51019 5.14481 2970 ft 161 kts 172°
2026-05-06 20:59 60.49923 5.14852 2971 ft 159 kts 172°
2026-05-06 20:59 60.48835 5.15221 2978 ft 161 kts 172°
2026-05-06 20:59 60.47682 5.15612 2986 ft 171 kts 172°
2026-05-06 21:00 60.46506 5.16011 3003 ft 173 kts 172°
2026-05-06 21:00 60.45321 5.16414 3002 ft 173 kts 172°
2026-05-06 21:00 60.44134 5.16817 2961 ft 173 kts 172°
2026-05-06 21:00 60.42950 5.17218 2790 ft 172 kts 172°
2026-05-06 21:01 60.41784 5.17614 2591 ft 163 kts 171°
2026-05-06 21:01 60.40699 5.17981 2364 ft 157 kts 171°
2026-05-06 21:01 60.39627 5.18344 2144 ft 155 kts 171°
2026-05-06 21:01 60.38605 5.18689 1938 ft 145 kts 171°
2026-05-06 21:02 60.37622 5.19016 1706 ft 141 kts 171°
2026-05-06 21:02 60.36657 5.19332 1464 ft 140 kts 170°
2026-05-06 21:02 60.35701 5.19670 1250 ft 141 kts 171°
2026-05-06 21:02 60.34739 5.19992 1058 ft 140 kts 171°
2026-05-06 21:03 60.33783 5.20315 942 ft 139 kts 171°
2026-05-06 21:03 60.32829 5.20642 673 ft 138 kts 170°
2026-05-06 21:03 60.32207 5.20860 507 ft 136 kts 170°
2026-05-06 21:03 60.31281 5.21169 362 ft 136 kts 171°
2026-05-06 21:04 60.30353 5.21476 210 ft 135 kts 171°
2026-05-06 21:04 60.29474 5.21770 154 ft 117 kts 171°
2026-05-06 21:04 60.28884 5.21968 164 ft 60 kts 171°
2026-05-06 21:04 60.28671 5.22059 161 ft 14 kts 139°
2026-05-06 21:05 60.28673 5.22227 164 ft 10 kts 80°
2026-05-06 21:05 60.28679 5.22295 166 ft 0 kts 78°
2026-05-06 21:05 60.28685 5.22321 167 ft 7 kts 62°
2026-05-06 21:05 60.28693 5.22390 169 ft 2 kts 83°
2026-05-06 21:06 60.28696 5.22432 171 ft 4 kts 77°
2026-05-06 21:06 60.28728 5.22465 173 ft 10 kts
2026-05-06 21:06 60.28801 5.22443 175 ft 7 kts 350°
2026-05-06 21:06 60.28846 5.22426 175 ft 6 kts 349°
2026-05-06 21:07 60.28889 5.22410 175 ft 6 kts 349°
2026-05-06 21:07 60.28928 5.22396 175 ft 5 kts 349°
2026-05-06 21:07 60.28949 5.22413 175 ft 1 kts 51°
2026-05-06 21:07 60.28948 5.22425 175 ft 2 kts 85°
2026-05-06 21:08 60.28939 5.22498 175 ft 3 kts 107°
2026-05-06 21:08 60.28935 5.22528 175 ft 1 kts 107°
2026-05-06 21:08 60.28933 5.22540 175 ft 1 kts 107°
2026-05-06 21:08 60.28932 5.22543 175 ft 0 kts 107°